CW8212 Weather Reports


time (UTC)temp
C
wind
direction
speed
KPH
gust
KPH
rain 1hr
cm
rain 24hr
cm
rain mn
cm
humidity
%
barometer
mb
20260505124536 18 309 3.2 11.3 0.00 0.00 0.00 63 1012.1
20260505123031 18 335 0.0 8.0 0.00 0.00 0.00 65 1012.0
20260505121533 17 280 3.2 14.5 0.00 0.00 0.00 69 1011.9
20260505120032 16 271 1.6 8.0 0.00 0.00 0.00 70 1011.7
20260505114521 16 176 1.6 9.7 0.00 0.00 0.00 71 1011.8
20260505113015 15 106 1.6 12.9 0.00 0.00 0.00 72 1011.7
20260505111517 15 210 0.0 6.4 0.00 0.00 0.00 73 1011.4
20260505101511 15 221 1.6 6.4 0.00 0.00 0.00 73 1011.1
20260505100004 15 150 1.6 4.8 0.00 0.00 0.00 72 1011.0
20260505094504 15 195 1.6 4.8 0.00 0.00 0.00 72 1010.8
20260505093004 15 221 1.6 4.8 0.00 0.00 0.00 72 1010.7
20260505091503 15 221 1.6 4.8 0.00 0.00 0.00 72 1010.9
20260505090005 15 236 1.6 6.4 0.00 0.00 0.00 73 1010.9
20260505084502 15 205 1.6 11.3 0.00 0.00 0.00 73 1010.7
20260505083002 15 189 0.0 6.4 0.00 0.00 0.00 73 1010.9
20260505081607 15 222 0.0 0.0 0.00 0.00 0.00 73 1010.8
20260505074559 15 187 0.0 4.8 0.00 0.00 0.00 73 1010.7
20260505073127 15 210 0.0 8.0 0.00 0.00 0.00 72 1010.9
20260505071602 15 221 1.6 3.2 0.00 0.00 0.00 72 1010.9
20260505064556 15 220 0.0 4.8 0.00 0.00 0.00 71 1010.8
20260505063055 15 215 0.0 4.8 0.00 0.00 0.00 70 1010.8
20260505061554 15 202 1.6 6.4 0.00 0.00 0.00 69 1010.8
20260505060053 15 215 0.0 9.7 0.00 0.00 0.00 68 1011.0
20260505054551 15 215 1.6 4.8 0.00 0.00 0.00 67 1010.9
20260505053050 15 221 1.6 4.8 0.00 0.00 0.00 66 1011.0
20260505051601 15 215 1.6 4.8 0.00 0.00 0.00 65 1011.1
20260505041543 16 246 0.0 4.8 0.00 0.00 0.00 58 1010.9
20260505040041 16 230 0.0 3.2 0.00 0.00 0.00 56 1010.8
20260505034540 16 201 0.0 4.8 0.00 0.00 0.00 55 1010.8
20260505033040 16 213 0.0 4.8 0.00 0.00 0.00 54 1010.8
20260505031541 17 221 0.0 4.8 0.00 0.00 0.00 53 1011.0
20260505030039 17 225 0.0 4.8 0.00 0.00 0.00 53 1011.0
20260505024537 17 207 0.0 4.8 0.00 0.00 0.00 52 1011.0
20260505023038 17 220 0.0 4.8 0.00 0.00 0.00 52 1011.1
20260505021537 17 223 0.0 4.8 0.00 0.00 0.00 51 1011.2
20260505020036 18 209 1.6 4.8 0.00 0.00 0.00 50 1011.1
20260505014535 18 208 0.0 3.2 0.00 0.00 0.00 50 1011.0
20260505013050 18 224 1.6 4.8 0.00 0.00 0.00 49 1011.0
20260505011535 18 181 1.6 4.8 0.00 0.00 0.00 48 1010.9
20260505010035 18 217 1.6 6.4 0.00 0.00 0.00 48 1010.8
20260505004534 18 214 0.0 3.2 0.00 0.00 0.00 47 1010.7
20260505003034 19 224 0.0 3.2 0.00 0.00 0.00 46 1010.5
20260505001533 19 221 0.0 3.2 0.00 0.00 0.00 44 1010.4
20260505000045 20 209 0.0 3.2 0.00 0.00 0.00 43 1010.3
20260504234535 20 222 0.0 4.8 0.00 0.00 0.00 43 1010.3
20260504233031 20 221 0.0 3.2 0.00 0.00 0.00 42 1010.2
20260504231531 20 232 0.0 4.8 0.00 0.00 0.00 41 1010.2
20260504230030 21 183 0.0 8.0 0.00 0.00 0.00 41 1010.2
20260504224529 21 223 0.0 6.4 0.00 0.00 0.00 40 1010.2
20260504223030 21 236 3.2 11.3 0.00 0.00 0.00 40 1010.3
20260504221529 21 250 1.6 6.4 0.00 0.00 0.00 40 1010.3
20260504220038 21 223 0.0 8.0 0.00 0.00 0.00 40 1010.3
20260504214527 21 234 1.6 8.0 0.00 0.00 0.00 40 1010.3
20260504213027 21 273 0.0 16.1 0.00 0.00 0.00 41 1010.5
20260504211533 21 319 3.2 12.9 0.00 0.00 0.00 41 1010.6
20260504210025 21 147 1.6 8.0 0.00 0.00 0.00 41 1010.4
20260504204527 21 230 3.2 8.0 0.00 0.00 0.00 41 1010.4
20260504203027 21 229 0.0 8.0 0.00 0.00 0.00 42 1010.6
20260504201522 21 267 1.6 8.0 0.00 0.00 0.00 40 1010.7
20260504200021 21 301 1.6 6.4 0.00 0.00 0.00 40 1010.8
20260504194518 21 67 0.0 12.9 0.00 0.00 0.00 40 1010.9
20260504193023 21 231 3.2 12.9 0.00 0.00 0.00 40 1011.0
20260504191522 21 272 0.0 8.0 0.00 0.00 0.00 40 1011.1
20260504190014 20 194 1.6 11.3 0.00 0.00 0.00 40 1011.4
20260504184516 20 342 3.2 12.9 0.00 0.00 0.00 40 1011.7
20260504183008 20 336 4.8 14.5 0.00 0.00 0.00 40 1011.8
20260504181503 20 167 1.6 12.9 0.00 0.00 0.00 41 1012.2
20260504180059 20 228 3.2 11.3 0.00 0.00 0.00 41 1012.2
20260504174556 20 224 1.6 12.9 0.00 0.00 0.00 41 1012.5
20260504173056 20 292 1.6 11.3 0.00 0.00 0.00 41 1012.7
20260504171600 20 281 1.6 12.9 0.00 0.00 0.00 41 1012.8